www.pogodaiklimat.ru

Погода и климат >> Архив погоды >> Индонезия >> Сангкапура


ПОГОДА в Сангкапуре

  • Прогноз погоды в Сангкапуре
  • Монитор погоды в Сангкапуре

АРХИВ ПОГОДЫ в Сангкапуре

Время (UTC), дата Ветер
(напр.,м/с)
 
Видим.   Явления Облачность Т
(С)
Тd
(С)
f
(%)
Тe
(С)
Тes
(С)
Комфортность P
(гПа)
Po
(гПа)
Тmin
(С)
Tmax
(С)
R
(мм)
R24
(мм)
S
(см)
00 14.06 З 2 8000 м гроза, ливневой дождь 10/5 500 м
[Cb cap Ac As]
+25.6 +24.8 95 +36 +36 очень
душно
1011.1 1010.6 +25.1 8
03 14.06 З 2 8000 м гроза, ливневой дождь 9/5 500 м
[Cb cap Ac As Ci sp]
+26.4 +25.2 93 +38 +43 очень
душно
1011.9 1011.5 4
06 14.06 ЮВ 3 7000 м гроза, ливневой дождь 9/5 500 м
[Cb cap Ac As Ci sp]
+26.6 +25.1 91 +38 +42 очень
душно
1009.8 1009.3 4
09 14.06 ЮВ 1 9000 м {гроза, дождь} 9/5 540 м
[Cu med, cong Ac As Ci sp]
+25.4 +24.4 94 +35 +36 очень
душно
1008.8 1008.3 16
12 14.06 штиль 0 9000 м {гроза, дождь} 8/4 540 м
[Cu med, cong Ac As Ci sp]
+25.2 +24.2 94 +35 +35 очень
душно
1010.6 1010.1 +28.4 16
15 14.06 В 2 9000 м 8/4 540 м
[Cu med, cong Ac As Ci sp]
+26.0 +24.8 93 +37 +37 очень
душно
1011.5 1011.1
18 14.06 ЮВ 2 9000 м 9/5 500 м
[Cb cap Ac As Ci sp]
+27.1 +25.3 90 +39 +39 очень
душно
1010.5 1010.0
21 14.06 В 2 9000 м 9/5 500 м
[Cb cap Ac As Ci sp]
+26.6 +25.4 93 +39 +39 очень
душно
1009.9 1009.4
00 15.06 В 3 10 км 9/5 540 м
[Cu med, cong Ac As Ci sp]
+28.4 +24.5 79 +40 +40 очень
душно
1011.4 1010.9 +24.7 24
03 15.06 В 6 10 км 6/4 540 м
[Cu med, cong Ac trans Ci sp]
+30.3 +24.9 73 +43 +47 опасность
перегрева
1011.7 1011.2
06 15.06 В 4 9000 м 8/5 570 м
[Cu med, cong Ac trans Ci sp]
+29.7 +24.8 75 +42 +46 опасность
перегрева
1009.7 1009.1
09 15.06 В 5 9000 м 8/5 570 м
[Cu med, cong Ac trans Ci sp]
+28.9 +24.6 78 +41 +42 опасность
перегрева
1008.6 1008.1
12 15.06 В 4 10 км 5/3 540 м
[Cu med, cong Ac trans Ci sp]
+28.0 +23.9 78 +39 +39 очень
душно
1010.3 1009.9 +31.2
15 15.06 В 4 10 км 6/4 540 м
[Cu med, cong Ac trans Ci sp]
+27.8 +23.8 79 +38 +38 очень
душно
1011.6 1011.1
18 15.06 В 3 10 км 6/5 540 м
[Cu med, cong Ac trans Ci sp]
+27.6 +22.5 74 +36 +36 очень
душно
1011.5 1011.0
21 15.06 В 5 10 км 6/5 540 м
[Cu med, cong Ac trans Ci sp]
+27.5 +22.3 73 +36 +36 очень
душно
1010.3 1009.9
00 16.06 ЮВ 5 10 км 5/5 540 м
[Cu med, cong Ac trans Ci fib]
+28.5 +23.5 74 +39 +39 очень
душно
1012.2 1011.7 +27.2
03 16.06 В 5 10 км 5/5 540 м
[Cu med, cong Ci fib]
+30.0 +22.5 64 +39 +43 очень
душно
1012.6 1012.1
06 16.06 ЮВ 3 10 км 4/4 570 м
[Cu med, cong Ci sp]
+30.4 +23.0 65 +41 +48 опасность
перегрева
1010.6 1010.1
09 16.06 В 3 10 км 5/5 540 м
[Cu med, cong Ci sp]
+29.2 +22.3 66 +38 +39 очень
душно
1010.0 1009.5
12 16.06 В 4 10 км 4/3 540 м
[Cu med, cong Ci fib]
+27.4 +23.0 77 +37 +37 очень
душно
1011.4 1010.9 +30.6
15 16.06 В 4 10 км 4/3 540 м
[Cu med, cong Ci fib]
+27.2 +21.8 72 +35 +35 очень
душно
1012.5 1012.0
18 16.06 В 4 10 км 4/4 540 м
[Cu med, cong Ci fib]
+26.7 +22.5 78 +35 +35 очень
душно
1011.9 1011.4
21 16.06 В 4 10 км 6/6 540 м
[Cu med, cong Ac trans Ci sp]
+27.2 +22.4 75 +36 +36 очень
душно
1011.2 1010.7
00 17.06 ЮВ 6 10 км 5/5 540 м
[Cu med, cong Ac trans Ci fib]
+28.5 +22.7 71 +38 +38 очень
душно
1012.7 1012.2 +26.4
03 17.06 ЮВ 6 10 км 5/5 540 м
[Cu med, cong Ci sp]
+29.5 +23.2 69 +40 +42 очень
душно
1012.2 1011.7
06 17.06 В 6 10 км 5/5 540 м
[Cu med, cong Ac trans Ci sp]
+29.7 +23.1 68 +40 +43 очень
душно
1010.1 1009.6
09 17.06 В 6 10 км 8/4 540 м
[Cu med, cong Ac trans Ci sp]
+28.8 +22.4 68 +38 +38 очень
душно
1009.4 1009.0
12 17.06 В 4 10 км 8/5 540 м
[Cu med, cong Ac trans Ci sp]
+27.6 +22.2 72 +36 +36 очень
душно
1010.9 1010.4 +30.2
15 17.06 В 3 10 км 5/4 540 м
[Cu med, cong Ac trans Ci sp]
+27.5 +22.3 73 +36 +36 очень
душно
1012.1 1011.7
18 17.06 В 3 10 км 5/5 540 м
[Cu med, cong Ac trans Ci sp]
+26.9 +21.6 73 +34 +34 очень
душно
1011.7 1011.2
21 17.06 В 5 10 км 4/4 540 м
[Cu med, cong Ac trans Ci sp]
+27.0 +20.9 69 +34 +34 очень
душно
1011.1 1010.6
00 18.06 ЮВ 4 10 км 3/3 570 м
[Cu med, cong Ci fib]
+27.2 +22.6 76 +36 +37 очень
душно
1012.4 1011.9 +26.8
03 18.06 В 8 10 км 4/4 570 м
[Cu med, cong Ci fib]
+29.8 +21.5 61 +38 +40 очень
душно
1012.1 1011.6
06 18.06 В 4 10 км 5/5 570 м
[Cu med, cong Ci fib]
+30.2 +21.6 60 +38 +43 очень
душно
1010.1 1009.6
09 18.06 В 5 10 км 5/5 570 м
[Cu med, cong Ci fib]
+29.1 +22.1 66 +38 +38 очень
душно
1009.2 1008.7
12 18.06 В 2 10 км 4/3 570 м
[Cu med, cong Ci fib]
+27.4 +21.2 69 +35 +35 очень
душно
1010.3 1009.8 +30.4
15 18.06 В 3 10 км 4/4 570 м
[Cu med, cong Ci fib]
+27.0 +22.5 76 +35 +35 очень
душно
1011.3 1010.8
18 18.06 ЮВ 4 10 км 5/4 570 м
[Cu med, cong Ac trans Ci sp]
+27.0 +22.4 76 +35 +35 очень
душно
1010.7 1010.2
21 18.06 ЮВ 4 10 км 8/6 570 м
[Cu med, cong Ac trans Ci sp]
+27.2 +22.4 75 +36 +36 очень
душно
1010.3 1009.8
00 19.06 ЮВ 5 10 км 4/4 540 м
[Cu med, cong Ci fib]
+28.4 +21.5 66 +36 +37 очень
душно
1012.0 1011.5 +26.7
03 19.06 ЮВ 5 10 км 5/5 540 м
[Cu med, cong Ci fib]
+29.4 +23.1 69 +39 +43 очень
душно
1012.0 1011.6
06 19.06 ЮВ 3 10 км 5/5 570 м
[Cu med, cong Ci sp]
+29.9 +23.0 67 +40 +47 очень
душно
1010.7 1010.2
09 19.06 В 2 10 км 4/4 540 м
[Cu med, cong Ac trans Ci sp]
+28.8 +22.8 70 +38 +39 очень
душно
1009.6 1009.1
15 19.06 ЮВ 3 10 км 8/4 540 м
[Cu med, cong Ac trans Ci sp]
+27.7 +22.7 74 +37 +37 очень
душно
1011.2 1010.7
18 19.06 В 4 10 км 9/4 540 м
[Cu med, cong Ac trans Ci sp]
+27.5 +22.6 75 +36 +36 очень
душно
1011.2 1010.8
21 19.06 В 3 10 км 9/4 540 м
[Cu med, cong Ac trans Ci sp]
+27.2 +22.9 77 +36 +36 очень
душно
1010.7 1010.2
00 20.06 В 3 10 км 8/3 540 м
[Cu med, cong Ac trans Ci sp]
+27.8 +22.8 74 +37 +38 очень
душно
1012.1 1011.6 +27.2
03 20.06 ЮВ 3 10 км 8/3 540 м
[Cu med, cong Ac trans Ci sp]
+29.7 +22.7 66 +39 +44 очень
душно
1012.0 1011.5
06 20.06 ЮВ 4 10 км 6/3 540 м
[Cu med, cong Ac trans Ci sp]
+30.3 +23.3 66 +41 +46 опасность
перегрева
1010.2 1009.8
09 20.06 ЮВ 3 10 км 6/4 540 м
[Cu med, cong Ac trans Ci sp]
+29.0 +23.4 72 +39 +40 очень
душно
1009.3 1008.9
12 20.06 В 4 10 км 3/3 540 м
[Cu med, cong Ci fib]
+27.4 +23.0 77 +37 +37 очень
душно
1010.2 1009.7 +31.6
15 20.06 В 3 10 км 5/5 540 м
[Cu med, cong Ci fib]
+27.0 +22.8 78 +36 +36 очень
душно
1010.5 1010.0
18 20.06 В 3 10 км 5/5 540 м
[Cu med, cong Ci fib]
+27.1 +23.1 79 +36 +36 очень
душно
1010.0 1009.5
21 20.06 10 км н/о +26.9 +22.7 78 +36 +36 очень
душно
1009.6 1009.2

 

Местоположение метеостанции Сангкапура (Индонезия): широта -5.85 долгота 112.63 высота над уровнем моря 3 м.

В архиве по умолчанию представлена погода в Сангкапуре за последнюю неделю. Архивные данные за месяц целиком и за предыдущие месяцы, начиная с января 2011 года, Вы можете получить, выбрав интересующий диапазон дат из раскрывающегося списка и нажав кнопку "Ввод!".


*Определитесь, кто Вы:
робот инопланетянин человек

Внимание! Время в таблицах - всемирное. Для получения местного времени необходимо прибавить поправку, которая равна 7 ч.

Смотрите также архив погоды в соседних городах и на ближайших метеорологических станциях:

Погода в Сурабая Перак (Индонезия) (153 км)
Погода в Аэропорту Джуанда (Индонезия) (170 км)
Погода в Сурабая Геданган (Индонезия) (194 км)
Погода в Калиянджете (Индонезия) (199 км)
Погода в Семаранге (Индонезия) (275 км)
Погода в Аэропорту Ахмад Яни (Индонезия) (279 км)
Погода в Банюванги (Индонезия) (327 км)
Погода в Банджармасине (Индонезия) (357 км)
Погода в Пангкалан-Буне (Индонезия) (365 км)
Погода в Тегале (Индонезия) (400 км)

Пояснения к столбцам:

Ветер - указаны скорость ветра в м/с - средняя за 10 мин, порывы в срок и между сроками (в фигурных скобках) и направление, откуда дует ветер: С - северный, СВ - северо-восточный, В - восточный, ЮВ - юго-восточный, Ю - южный, ЮЗ - юго-западный, З - западный, СЗ - северо-западный.
Видимость - горизонтальная дальность видимости в метрах или километрах. При видимости от 1 до 10 км при отсутствии осадков обычно наблюдается дымка, при ухудшении видимости до 1 км и менее - туман. В сухую погоду видимость может ухудшаться дымом, пылью или мглою.
Явления - указаны атмосферные явления, наблюдавшиеся в срок или в последний час перед сроком; фигурными скобками обозначены явления, наблюдавшиеся между сроками (за 1-3 часа до срока); квадратными скобками обозначены град или гололедные отложения с указанием их диаметра в мм.
Облачность - указаны через наклонную черту общая и нижняя облачность в баллах и высота нижней границы облаков в метрах; квадратными скобками обозначены формы облаков: Ci - перистые, Cs - перисто-слоистые, Cc - перисто-кучевые, Ac - высококучевые, As - высокослоистые, Sc - слоисто-кучевые, Ns - слоисто-дождевые, Cu - кучевые, Cb - кучево-дождевые. Подробнее классификацию облаков см. в Атласе облаков (PDF).
T - Температура воздуха - температура, измеренная на высоте 2 м над землей.
Td - Температура точки росы - температура, при понижении до которой содержащийся в воздухе водяной пар достигнет насыщения.
f - Относительная влажность воздуха - влажноcть воздуха, измеренная на высоте 2 м над землей.
Te - Эффективная температура - температура, которую ощущает одетый по сезону человек в тени. Характеристика душности погоды. При расчете учитывается влияние влажности воздуха и скорости ветра на теплоощущения человека.
Tes - Эффективная температура на солнце - температура, которую ощущает человек, с поправкой на солнечный нагрев. Характеристика знойности погоды. Зависит от высоты солнца над горизонтом, облачности и скорости ветра. Ночью, в пасмурную погоду, а также при ветре 12 м/с и более поправка равна нулю.
P - Атмосферное давление - приведенное к уровню моря атмосферное давление.
Po - Атмосферное давление - измеренное на уровне метеостанции атмосферное давление.
Tmin - Минимальная температура - минимум температуры воздуха на высоте 2 м над землей.
Tmax - Максимальная температура - максимум температуры воздуха на высоте 2 м над землей.
R - Количество осадков - Количество выпавших осадков за период времени, мм. При наведении курсора мыши на число - период времени, за который выпало указанное количество осадков.
R24 - Количество осадков - Количество выпавших осадков за 24 часа, мм.
S - Снежный покров - Высота снежного покрова, см. При наведении курсора мыши на число - состояние снежного покрова и степень покрытия местности в баллах.